Vorticity
10 2 31 31 -3 -8 44 -12 10 6 3 6 17 19 -11 6 11 3 4 22 -12 -2 16 11 10 2 6 8 9 6 6 10 7 7 7 9 7 6 4 2 2 2 3 5
-1 26 24 25 13 9 -2 13 17 28 -4 20 17 0 36 -9 9 18 42 31 6 -28 2 19 6 5 8 5 6 5 6 5 4 5 8 5 3 3 2 0 4 5 4 6
7 46 -1 5 10 13 12 -3 11 14 12 5 13 8 11 8 1 2 -4 3 25 9 -8 9 15 7 7 7 7 4 1 1 4 4 2 2 6 4 8 5 3 5 6 4
-15 5 15 17 0 20 11 20 1 5 4 -4 -4 13 5 22 10 13 17 21 16 23 14 -4 8 10 5 9 9 5 6 4 2 4 8 7 6 6 2 5 6 3 4 5
12 -5 45 22 2 21 5 24 9 2 -2 -12 26 -7 16 18 12 15 19 9 19 29 -11 0 11 -3 11 5 6 9 9 7 11 10 7 6 4 2 3 3 4 5 6 7
8 12 -0 -6 13 15 13 35 4 9 3 16 10 -13 16 7 8 15 12 14 22 19 27 -2 14 -1 14 0 10 7 6 8 4 2 2 2 1 2 3 4 7 7 7 7
11 11 14 -4 11 29 1 -9 2 6 8 -11 17 7 -23 -0 2 -0 15 4 9 16 18 30 -6 18 9 -1 12 11 10 8 2 1 -1 -0 1 3 5 6 7 5 5 8
12 9 7 14 -4 26 13 -23 8 6 8 17 11 19 -11 26 3 5 13 15 24 5 9 21 30 30 8 -4 1 12 7 4 4 3 1 1 3 7 9 8 6 7 7 7
8 17 19 14 2 12 20 -13 6 13 6 -3 5 26 8 6 16 13 3 15 15 43 6 0 25 6 10 8 19 12 4 4 3 2 -1 7 12 8 7 6 6 5 6 8
13 18 6 -0 3 4 15 17 10 3 8 8 18 6 2 18 17 15 10 7 13 15 23 11 7 8 23 18 8 16 8 9 12 12 12 2 -3 -5 -3 1 -1 4 7 6
-0 10 43 -13 5 1 12 6 3 1 5 7 13 7 56 -13 12 11 10 13 14 18 20 14 18 12 11 24 14 -1 8 9 4 5 13 12 9 2 8 7 7 7 10 10
3 13 6 10 2 7 -5 8 3 -3 14 2 -6 17 5 0 4 -2 0 6 12 14 16 21 20 8 16 10 3 35 12 -20 6 10 8 11 6 2 3 5 9 11 12 11
2 19 4 19 34 9 7 6 7 7 -5 0 -1 18 8 2 7 -6 -16 -5 14 -10 -6 9 22 27 8 15 10 13 27 23 5 9 45 0 2 14 12 14 13 11 10 11
-1 19 -6 6 4 32 18 -3 -10 -11 -1 6 -1 -30 -4 -10 -6 3 -2 16 2 15 -12 -15 18 15 15 13 16 17 8 16 17 16 7 4 8 12 15 17 12 10 10 10
-4 11 10 -1 2 7 4 8 31 12 6 -13 -2 6 6 6 4 14 16 17 0 -2 4 -1 3 13 10 14 16 16 16 20 18 14 13 12 11 11 10 10 10 9 9 9
5 5 12 18 15 12 8 5 4 11 12 12 8 12 23 6 1 -5 -11 -11 -1 13 3 4 -1 7 11 6 10 11 11 10 10 10 9 7 7 9 9 9 9 9 9 9
2 12 9 18 6 8 34 29 23 13 9 12 19 8 9 9 5 2 -1 6 24 26 21 24 25 21 11 7 7 7 8 8 7 8 9 9 10 11 11 10 10 10 10 11
6 8 0 6 16 17 14 1 7 12 15 18 13 6 5 14 9 11 16 19 18 20 10 25 9 13 6 5 8 6 5 6 10 9 8 10 11 11 10 11 11 11 11 11
3 5 -1 2 6 -15 48 32 19 18 10 12 17 21 11 12 9 10 10 14 17 15 19 13 13 12 12 -5 -4 14 7 7 9 7 7 10 10 9 9 10 11 10 10 9
8 17 -10 15 8 7 -3 -3 6 4 19 15 15 16 12 12 11 11 10 9 10 10 12 18 12 8 13 16 13 20 8 8 8 3 3 7 8 8 10 11 12 11 11 11
28 20 9 3 0 17 2 3 12 33 4 7 1 4 9 10 9 11 16 16 14 20 15 24 14 11 17 20 23 11 7 7 5 5 5 7 10 8 10 12 8 3 -0 12
8 6 6 32 14 15 16 13 24 5 1 3 7 8 6 8 13 16 11 19 17 18 21 23 9 11 16 18 10 7 6 7 6 4 5 6 10 9 8 10 13 13 16 15
20 16 -12 -8 25 -7 -2 -1 -1 -6 4 15 3 9 -3 2 5 11 14 14 15 14 19 18 19 9 10 9 9 5 6 6 5 6 8 8 11 8 13 11 16 17 7 15
14 6 14 10 17 16 9 -0 14 3 -11 2 13 8 6 14 15 8 10 13 11 12 11 14 20 17 12 10 6 5 5 5 7 5 14 14 10 8 21 6 5 15 11 8
17 4 4 2 -6 6 25 16 24 23 5 -5 -1 9 13 10 14 8 16 9 7 13 12 9 8 10 10 9 10 9 7 6 6 13 14 11 20 14 11 6 12 13 15 11
5 7 4 10 10 2 5 2 -0 5 7 19 13 13 15 16 13 7 8 9 7 13 22 7 12 9 5 15 17 29 18 7 11 17 17 20 5 6 14 11 9 8 13 14
Height
3027 3034 3035 3040 3045 3055 3061 3066 3070 3078 3081 3086 3090 3096 3100 3104 3106 3108 3110 3115 3120 3124 3127 3131 3136 3139 3142 3146 3149 3151 3154 3155 3157 3159 3162 3165 3168 3170 3172 3174 3176 3176 3178 3178
3030 3031 3037 3045 3052 3059 3063 3067 3074 3077 3081 3087 3092 3095 3096 3098 3100 3106 3110 3114 3118 3122 3123 3127 3130 3135 3138 3142 3145 3148 3151 3152 3154 3157 3160 3162 3164 3166 3168 3170 3171 3173 3173 3174
3029 3032 3038 3044 3048 3056 3063 3067 3069 3074 3081 3085 3090 3092 3094 3096 3099 3101 3103 3108 3113 3118 3121 3122 3125 3129 3133 3137 3141 3143 3146 3148 3150 3154 3156 3158 3160 3162 3163 3165 3166 3168 3168 3169
3033 3036 3042 3047 3052 3057 3060 3068 3072 3076 3081 3084 3088 3090 3088 3090 3093 3095 3098 3102 3105 3111 3116 3118 3119 3125 3128 3132 3135 3139 3142 3144 3147 3150 3152 3154 3156 3157 3158 3159 3161 3162 3162 3163
3039 3037 3040 3049 3055 3059 3063 3067 3073 3076 3080 3084 3088 3092 3086 3087 3090 3090 3093 3096 3099 3103 3108 3114 3114 3118 3122 3127 3131 3134 3137 3139 3142 3144 3146 3149 3150 3152 3153 3154 3155 3156 3157 3157
3042 3044 3046 3049 3056 3061 3063 3068 3074 3077 3082 3087 3085 3088 3084 3084 3086 3088 3091 3093 3095 3098 3102 3107 3110 3113 3117 3122 3124 3128 3131 3134 3137 3139 3141 3143 3145 3147 3148 3149 3149 3149 3150 3151
3045 3047 3050 3054 3058 3061 3065 3069 3076 3084 3084 3080 3079 3083 3081 3082 3085 3086 3089 3091 3093 3093 3097 3099 3100 3103 3108 3115 3119 3122 3124 3128 3131 3133 3135 3137 3139 3141 3142 3143 3143 3143 3143 3143
3051 3057 3057 3059 3063 3065 3068 3071 3074 3078 3081 3080 3081 3079 3079 3081 3082 3084 3085 3086 3087 3088 3091 3093 3093 3097 3102 3107 3112 3116 3119 3122 3124 3127 3130 3132 3133 3134 3135 3136 3137 3137 3136 3136
3053 3056 3057 3060 3063 3068 3071 3071 3076 3075 3074 3077 3079 3078 3079 3079 3080 3081 3082 3082 3082 3084 3087 3088 3088 3091 3095 3100 3104 3109 3113 3116 3118 3121 3123 3125 3126 3127 3128 3129 3130 3129 3129 3128
3055 3056 3060 3063 3066 3069 3070 3074 3077 3075 3078 3077 3076 3075 3075 3076 3077 3078 3079 3079 3079 3080 3082 3083 3086 3086 3088 3094 3098 3102 3106 3109 3112 3114 3117 3119 3120 3120 3122 3123 3124 3123 3122 3120
3056 3058 3063 3065 3066 3068 3072 3073 3074 3075 3077 3078 3078 3075 3071 3074 3076 3077 3078 3078 3078 3078 3078 3079 3081 3080 3081 3087 3092 3095 3098 3102 3104 3107 3109 3111 3113 3114 3116 3117 3115 3114 3113 3112
3057 3059 3061 3064 3067 3068 3069 3070 3073 3075 3079 3078 3079 3078 3074 3074 3075 3076 3076 3077 3077 3076 3075 3075 3077 3077 3078 3080 3084 3087 3090 3091 3094 3098 3100 3103 3105 3107 3107 3107 3106 3105 3104 3103
3057 3060 3063 3066 3068 3067 3067 3069 3071 3074 3076 3076 3079 3076 3074 3074 3075 3075 3074 3074 3074 3075 3074 3074 3073 3073 3074 3077 3079 3079 3080 3084 3087 3091 3093 3095 3096 3099 3100 3099 3099 3098 3096 3095
3057 3059 3060 3061 3061 3063 3064 3066 3069 3071 3073 3073 3072 3072 3072 3073 3073 3072 3072 3071 3070 3069 3070 3070 3070 3070 3070 3071 3072 3073 3075 3078 3081 3083 3086 3088 3090 3091 3092 3092 3091 3090 3088 3086
3057 3057 3058 3059 3060 3060 3061 3062 3064 3066 3066 3068 3066 3066 3067 3070 3071 3069 3069 3066 3066 3066 3065 3065 3066 3067 3067 3067 3067 3069 3070 3074 3075 3077 3079 3080 3082 3082 3083 3083 3082 3081 3080 3078
3057 3058 3057 3057 3058 3058 3057 3058 3059 3059 3060 3060 3059 3056 3060 3061 3061 3061 3061 3060 3059 3058 3059 3058 3061 3062 3062 3063 3063 3064 3066 3069 3070 3072 3073 3074 3075 3076 3076 3075 3074 3073 3072 3071
3056 3056 3056 3057 3057 3056 3054 3051 3051 3051 3053 3054 3052 3053 3055 3054 3054 3053 3051 3051 3052 3052 3053 3052 3052 3055 3055 3057 3058 3059 3062 3063 3065 3067 3068 3069 3069 3069 3069 3068 3068 3067 3065 3063
3054 3055 3057 3056 3056 3055 3049 3048 3048 3047 3046 3047 3046 3048 3048 3047 3045 3046 3046 3043 3043 3043 3044 3044 3045 3048 3050 3051 3053 3055 3057 3059 3060 3061 3062 3063 3063 3063 3063 3062 3060 3059 3057 3055
3053 3055 3056 3056 3055 3051 3046 3043 3044 3043 3043 3043 3043 3043 3042 3041 3040 3040 3039 3038 3037 3037 3036 3037 3039 3041 3043 3045 3047 3050 3052 3054 3055 3056 3057 3057 3057 3057 3056 3055 3053 3051 3049 3047
3053 3056 3058 3056 3055 3051 3046 3045 3044 3043 3041 3040 3039 3038 3037 3036 3034 3034 3033 3032 3032 3031 3030 3031 3033 3035 3036 3038 3041 3045 3047 3049 3051 3051 3051 3052 3051 3050 3049 3047 3046 3044 3043 3041
3051 3053 3052 3053 3053 3047 3045 3044 3044 3045 3045 3039 3038 3037 3035 3033 3032 3030 3028 3027 3026 3024 3025 3025 3027 3029 3030 3033 3036 3039 3042 3044 3045 3045 3046 3045 3045 3044 3043 3042 3040 3038 3036 3034
3051 3050 3049 3049 3048 3045 3043 3042 3043 3042 3040 3038 3037 3034 3032 3030 3028 3026 3024 3022 3020 3019 3019 3020 3023 3025 3027 3029 3032 3035 3037 3038 3040 3040 3040 3039 3039 3038 3037 3036 3034 3033 3031 3029
3049 3048 3047 3047 3043 3041 3040 3040 3038 3037 3036 3034 3033 3031 3029 3027 3025 3023 3021 3019 3018 3017 3016 3017 3019 3020 3023 3025 3028 3030 3032 3033 3034 3034 3033 3033 3032 3032 3032 3031 3029 3028 3027 3025
3045 3044 3042 3043 3041 3039 3037 3035 3032 3031 3029 3028 3027 3025 3024 3023 3021 3020 3018 3017 3016 3016 3015 3015 3015 3017 3019 3021 3023 3025 3026 3027 3027 3027 3026 3026 3025 3025 3025 3025 3024 3023 3022 3021
3042 3039 3038 3035 3035 3031 3031 3026 3026 3024 3022 3021 3020 3019 3018 3017 3016 3015 3014 3014 3014 3013 3013 3013 3013 3014 3015 3016 3017 3018 3018 3019 3019 3019 3019 3018 3017 3018 3018 3019 3018 3018 3017 3017
3036 3035 3033 3029 3029 3025 3023 3021 3018 3017 3016 3014 3013 3013 3012 3012 3011 3011 3010 3010 3009 3009 3009 3009 3009 3009 3010 3010 3010 3010 3010 3011 3011 3011 3011 3011 3011 3011 3011 3011 3012 3011 3011 3012